Regional Weather Roundup
Issued by NWS

Home | Current Version | Previous Version | Text Only | Print | Product List | Glossary Off
Versions: 1 2 3 4 5 6 7 8 9 10 11 12 13 14 15 16 17 18 19 20 21 22 23 24 25 26 27 28 29 30 31 32 33 34 35 36 37 38 39 40 41 42 43 44 45 46 47 48 49 50

000
ASUS45 KTFX 230210
RWRMT
MONTANA REGIONAL WEATHER ROUNDUP
NATIONAL WEATHER SERVICE GREAT FALLS MT
800 PM MDT TUE MAY 22 2018

NOTE: "FAIR" INDICATES FEW OR NO CLOUDS BELOW 12000 FEET WITH NO
SIGNIFICANT WEATHER AND/OR OBSTRUCTIONS TO VISIBILITY.

MTZ001>007-043-230300-
WEST OF THE DIVIDE

CITY           SKY/WX    TMP DP  RH WIND       PRES   REMARKS
KALISPELL      FAIR      75  45  34 S7        29.88R
MISSOULA       FAIR      74  44  34 E14       29.90R
BUTTE          LGT RAIN  53  49  86 S6        30.03F
MULLAN PASS    FAIR      59  40  49 VRB7      30.02R
ANACONDA         N/A     55  46  71 SE7       30.00F
DEER LODGE       N/A     61  52  72 S7        30.00F
HAMILTON         N/A     61  50  67 MISG      29.94S
PLAINS           N/A     77  49  37 CALM      29.88S
RONAN            N/A     73  52  46 CALM      29.90S
$$

MTZ008-052>055-230300-
SOUTHWEST MONTANA

CITY           SKY/WX    TMP DP  RH WIND       PRES   REMARKS
BOZEMAN        CLOUDY    59  51  75 SW7       30.01R
DILLON         MOCLDY    56  47  71 NE10      30.00R
ENNIS          LGT RAIN  52  50  93 N16       30.02F
W YELLOWSTONE  CLOUDY    54  43  66 NW3       30.03R
TWIN BRIDGES     N/A     56  47  71 N16       29.98
$$

MTZ009-010-012-014-046-048-049-054-230300-
EAST SLOPES AND CENTRAL MONTANA

CITY           SKY/WX    TMP DP  RH WIND       PRES   REMARKS
CUT BANK       FAIR      70  41  34 S8        29.98R
GREAT FALLS    FAIR      67  54  63 NW5       29.97F
MALMSTROM AFB  FAIR      66  46  48 CALM      29.97S
HELENA         FAIR      65  51  60 NW5       29.96S
AUGUSTA        FAIR      63  47  56 CALM      30.02S
BOWMANS CRNR   FAIR      59  49  71 N7        30.00R
CHOTEAU          N/A     64  46  52 SE6       30.02S
FAIRFIELD      FAIR      66  50  57 CALM      29.99S
POWER          FAIR      65  48  55 W6        29.98F
RAYNESFORD     FAIR      63  47  55 E7        30.00R
ULM            FAIR      64  50  60 CALM      29.98S
WHITE SULPHUR    N/A     57  48  72 CALM      30.02S
$$

MTZ011-013-016-021-045-047-050-051-230300-
NORTH CENTRAL MONTANA

CITY           SKY/WX    TMP DP  RH WIND       PRES   REMARKS
HAVRE          FAIR      71  50  47 SW10      29.92S
LEWISTOWN      MOCLDY    62  48  60 CALM      30.01S
N BAR RANCH    CLOUDY    59  50  72 NW5       30.04F
CHINOOK          N/A     73  54  49 W6        29.91R
DENTON         MOCLDY    69  53  56 SW5       29.95F
GEYSER         MOCLDY    62  48  60 E6        30.01R
GRASS RANGE    MOCLDY    63  54  73 CALM      29.96F
JUDITH GAP     LGT RAIN  57  50  77 NW6       30.03R
ROY            CLOUDY    63  49  60 W8        29.96F
STANFORD       FAIR      60  50  69 E5        30.02S
WINIFRED       MOCLDY    63  55  75 W3        29.98S
$$

MTZ017>020-022>027-061-062-230300-
NORTHEAST MONTANA

CITY           SKY/WX    TMP DP  RH WIND       PRES   REMARKS
GLASGOW        FAIR      76  48  37 CALM      29.90S
GLENDIVE       MOCLDY    71  58  63 NW6       29.92S
JORDAN           N/A     71  56  58 CALM      29.93R
MALTA          CLEAR     72  52  49 SW9       29.88F
SIDNEY         MOCLDY    75  56  51 CALM      29.90S
WOLF POINT     FAIR      72  54  53 CALM      29.89F
PLENTYWOOD       N/A     70  48  46 CALM      29.91F
POPLAR           N/A     73  48  40 CALM      29.90S
SCOBEY           N/A     69  46  43 CALM      29.92
$$

MTZ028>42-056>058-230300-
SOUTHCENTRAL AND SOUTHEAST MONTANA

CITY           SKY/WX    TMP DP  RH WIND       PRES   REMARKS
BAKER          FAIR      71  56  58 NW6       29.92S
BILLINGS       MOCLDY    63  53  70 N20G26    29.94S THUNDER
LIVINGSTON     CLOUDY    57  53  86 S7        30.01S
MILES CITY     FAIR      71  59  65 NE9       29.90S
BIG TIMBER     CLOUDY    57  50  77 E7G14     30.03S
EKALAKA          N/A     70  58  65 CALM      29.93
FORSYTH          N/A     72  57  60 NE5       29.90S
HARLOWTON      RAIN      54  52  92 NW9       30.02F
LAUREL           N/A     63  50  63 N20G25    29.94R
$$

REGIONAL REPORTS...DAKOTAS

CITY           SKY/WX    TMP DP  RH WIND       PRES   REMARKS
WILLISTON      CLOUDY    74  51  44 NE8       29.91R
MINOT          CLOUDY    80  45  28 CALM      29.90R
DICKINSON      FAIR      70  54  56 SE10      29.89R
BEACH          MOCLDY    70  54  56 NE7G13    29.95R
CROSBY         FAIR      66  48  52 E7        29.93S
TIOGA          MOCLDY    64  55  72 E16       29.95F
WATFORD CITY   MOCLDY    73  50  43 NE9G16    29.90S
BISMARCK       MOCLDY    73  54  51 E3        29.90R
GRAND FORKS    FAIR      74  55  51 SE8       29.93S
FARGO          FAIR      76  56  49 E10       29.94R
BUFFALO SD       N/A     71  57  61 W3        29.84F
RAPID CITY     TSTM      60  57  89 S18       29.99R
$$

REGIONAL REPORTS...WYOMING/IDAHO/WASHINGTON

CITY           SKY/WX    TMP DP  RH WIND       PRES   REMARKS
GILLETTE       MOCLDY    68  44  42 E9        29.94R
SHERIDAN       FAIR      64  55  72 CALM      29.94F
BUFFALO WY     CLOUDY    63  46  54 W10       29.99R
CODY           LGT RAIN  60  45  57 SE23G33   30.02R
YELLOWSTONE LA   N/A     52  39  61 CALM      30.10F
IDAHO FALLS    FAIR      64  44  48 SE13      29.92R
SALMON         FAIR      65  47  52 N14       29.91S
BOISE          FAIR      77  49  37 NW7       29.79R
SPOKANE        FAIR      82  41  23 N9        29.81F
$$

REGIONAL REPORTS...ALBERTA

CITY           SKY/WX    TMP DP  RH WIND       PRES   REMARKS
CALGARY        MOSUNNY   73  39  29 SE12      29.95S
CARDSTON         N/A     66  48  52 SW7         N/A
EDMONTON       SUNNY     77  41  27 SE8       29.89F
FORT MCMURRAY  SUNNY     82  41  23 SW7       29.80S
HIGH LEVEL     MOSUNNY   81  41  24 S5        29.70S
LETHBRIDGE     MOSUNNY   73  43  33 E8        29.93R
LLOYDMINSTER   MOSUNNY   77  39  25 CALM      29.91S
MEDICINE HAT   PTCLDY    77  39  25 N8        29.90R
MILK RIVER       N/A     68  46  45 E7          N/A
PEACE RIVER    MOSUNNY   79  43  27 S13       29.81F
PINCHER CREEK    N/A     70  43  37 SE16      29.97R
WATERTON GATE    N/A     70  37  30 E7          N/A
$$

REGIONAL REPORTS...SASKATCHEWAN

CITY           SKY/WX    TMP DP  RH WIND       PRES   REMARKS
CORONACH         N/A     72  48  43 SE9         N/A
CYPRESS HILLS    N/A     68  37  32 NE2         N/A
ESTEVAN        LGT RAIN  61  54  77 NE13      29.94S
MOOSE JAW        N/A     72  46  40 SE14G20     N/A
PRINCE ALBERT  MOCLDY    79  48  34 SE6       29.93R
REGINA         PTCLDY    68  52  56 SE12      29.93S
ROCKGLEN         N/A     66  48  52 SW7         N/A
SASKATOON      MOCLDY    73  45  35 S8        29.92R
SWIFT CURRENT  CLEAR     68  43  40 NE7       29.93R
VAL MARIE        N/A     73  46  38 SE17        N/A
$$



USA.gov is the U.S. government's official web portal to all federal, state and local government web resources and services.